Regional Weather Roundup
Issued by NWS

Home | Current Version | Previous Version | Graphics & Text | Print | Product List | Glossary On
Versions: 1 2 3 4 5 6 7 8 9 10 11 12 13 14 15 16 17 18 19 20 21 22 23 24 25 26 27 28 29 30 31 32 33 34 35 36 37 38 39 40 41 42 43 44 45 46 47 48 49 50
094
ASUS43 KDMX 040001
RWRIA

WEATHER ROUNDUP FOR IOWA
NATIONAL WEATHER SERVICE DES MOINES IA
600 PM CST SAT DEC 03 2016

NOTE: "FAIR" INDICATES FEW OR NO CLOUDS BELOW 12,000 FEET WITH NO
SIGNIFICANT WEATHER AND/OR OBSTRUCTIONS TO VISIBILITY.

* - THESE STATIONS ARE NOT NWS STATIONS...THUS NOT UNDER NWS
QUALITY CONTROL.  THEY ALSO DO NOT REPORT WEATHER SUCH
AS PRECIPITATION OR FOG.

IAZ001>003-012>014-020>022-031>034-043>046-040100-
   NORTHWEST IOWA

CITY           SKY/WX    TMP DP  RH WIND       PRES   REMARKS
CARROLL *      LGT SNOW  34  34 100 SE7       30.16F WCI  28
CHEROKEE *     LGT SNOW  32  32 100 S6        30.14F WCI  27
DENISON *      LGT SNOW  34  34 100 SE8       30.12F WCI  27
LE MARS *      CLOUDY    34  32  93 SE10      30.13F FOG     WCI  26
ORANGE CITY *  LGT SNOW  34  34 100 CALM      30.11F
SHELDON *      CLOUDY    32  32 100 S10       30.11F FOG     WCI  24
SIOUX CITY     LGT SNOW  34  33  96 SE8       30.13F FOG     WCI  27
6HR MIN TEMP:  34; 6HR MAX TEMP:  37; 6HR PCP:  0.05;

SPENCER        LGT SNOW  33  32  96 S15       30.14F FOG     WCI  23
6HR MIN TEMP:  33; 6HR MAX TEMP:  38; 6HR PCP:  0.01;

STORM LAKE *   LGT SNOW  32  32 100 SE12      30.14F WCI  23
$$

IAZ055>058-069>071-079>083-090>094-040100-
   SOUTHWEST IOWA

CITY           SKY/WX    TMP DP  RH WIND       PRES   REMARKS
ATLANTIC *     LGT SNOW  34  34 100 E7        30.16F WCI  28
AUDUBON *      LGT SNOW  34  30  86 E3        30.16F
CLARINDA *       N/A     39  36  87 E7        30.17S WCI  34
COUNCIL BLFS * LGT SNOW  32  32 100 E8        30.13F WCI  25
CRESTON *      MIX PCPN  37  32  81 NE6       30.18F WCI  33
HARLAN  *      LGT SNOW  32  32 100 E5        30.18F WCI  27
LAMONI         CLOUDY    40  32  73 E5        30.17S
6HR MIN TEMP:  39; 6HR MAX TEMP:  42;

RED OAK *      MIX PCPN  36  34  93 E9        30.15F WCI  29
SHENANDOAH *   CLOUDY    37  36  93 E6        30.15F WCI  33
$$

IAZ047>049-059>061-072>074-084-040100-
   CENTRAL IOWA

CITY           SKY/WX    TMP DP  RH WIND       PRES   REMARKS
AMES           CLOUDY    36  35  96 SE5       30.20F WCI  32
6HR MIN TEMP:  36; 6HR MAX TEMP:  40; 6HR PCP:  0.02;

ANKENY *       MIX PCPN  37  37 100 E5        30.22F WCI  34
BOONE *        CLOUDY    36  34  93 SE7       30.18F WCI  30
CHARITON *       N/A     39  32  75 E8        30.19S WCI  34
DES MOINES     LGT RAIN  40  33  76 E6        30.20F
6HR MIN TEMP:  40; 6HR MAX TEMP:  42; 6HR PCP:  0.01;

GRINNELL*      CLOUDY    37  31  81 E3        30.23F
KNOXVILLE *    CLOUDY    39  30  70 E6        30.20F WCI  35
MARSHALLTOWN   CLOUDY    36  32  85 S7        30.22F WCI  30
6HR MIN TEMP:  36; 6HR MAX TEMP:  40; 6HR PCP: TRACE;

NEWTON *       CLOUDY    37  32  81 E7        30.21F WCI  32
PELLA *        PTCLDY    38  32  77 E5        30.23F WCI  35
PERRY *        MOCLDY    35  35  99 E7        30.19F WCI  29
$$

IAZ004>006-015-016-023>025-035-036-040100-
   NORTH CENTRAL IOWA

CITY           SKY/WX    TMP DP  RH WIND       PRES   REMARKS
ALGONA *       CLOUDY    34  34 100 S10       30.18F FOG     WCI  26
CLARION *      CLOUDY    34  34 100 S9        30.20F FOG     WCI  26
ESTHERVILLE    LGT SNOW  32  32 100 S12       30.15F FOG     WCI  23
6HR MIN TEMP:  32; 6HR MAX TEMP:  36; 6HR PCP:  0.01;

FORT DODGE *   CLOUDY    34  30  86 SE5       30.19F WCI  30
MASON CITY     LGT SNOW  33  31  92 S6        30.21F FOG     WCI  28
6HR MIN TEMP:  33; 6HR MAX TEMP:  37; 6HR PCP: TRACE;

WEBSTER CITY * CLOUDY    34  34 100 SE6       30.18F FOG     WCI  29
IOWA FALLS *   LGT RAIN  36  33  90 S8        30.22F WCI  29
$$

IAZ007>011-017>019-026>030-037>042-050>054-066-040100-
   NORTHEAST IOWA

CITY           SKY/WX    TMP DP  RH WIND       PRES   REMARKS
CEDAR RAPIDS   CLOUDY    35  30  82 S3        30.25R
6HR MIN TEMP:  35; 6HR MAX TEMP:  39;

CHARLES CITY * CLOUDY    36  30  80 SE5       30.22F WCI  32
CLINTON *      CLOUDY    34  27  75 S7        30.28F WCI  28
DECORAH *      CLOUDY    32  25  74 CALM      30.23F
DUBUQUE        CLOUDY    34  27  75 E3        30.25F
6HR MIN TEMP:  33; 6HR MAX TEMP:  35;

MONTICELLO *   CLOUDY    36  30  80 S5        30.25R WCI  32
OELWEIN *      CLOUDY    36  32  87 CALM      30.24S
WATERLOO       CLOUDY    37  29  72 SE3       30.23F
6HR MIN TEMP:  36; 6HR MAX TEMP:  40;

$$

IAZ064-065-067-068-078-040100-
   EAST CENTRAL IOWA

CITY           SKY/WX    TMP DP  RH WIND       PRES   REMARKS
DAVENPORT      CLOUDY    34  26  72 CALM      30.27F
6HR MIN TEMP:  34; 6HR MAX TEMP:  38;

IOWA CITY      CLOUDY    37  28  70 SE5       30.28S WCI  33
6HR MIN TEMP:  37; 6HR MAX TEMP:  40;

MUSCATINE *    CLOUDY    37  28  70 SE3       30.28S
QUAD CITIES    CLOUDY    33  26  75 E5        30.27F WCI  29
6HR MIN TEMP:  33; 6HR MAX TEMP:  40;

$$

IAZ062-063-075>077-085>089-095>099-040100-
   SOUTHEAST IOWA

CITY           SKY/WX    TMP DP  RH WIND       PRES   REMARKS
BURLINGTON     CLOUDY    36  30  79 E6        30.26S WCI  31
6HR MIN TEMP:  36; 6HR MAX TEMP:  40;

FAIRFIELD *    CLOUDY    36  30  80 E7        30.24S WCI  30
FORT MADISON * CLOUDY    37  30  75 E7        30.26S WCI  32
KEOKUK *       CLOUDY    37  32  81 E9        30.25S WCI  31
OSKALOOSA *    CLOUDY    37  32  81 SE7       30.23S WCI  32
CENTERVILLE *  MOCLDY    39  32  75 E7        30.22S WCI  34
OTTUMWA        CLOUDY    38  30  73 E8        30.22F WCI  32
6HR MIN TEMP:  38; 6HR MAX TEMP:  42;

WASHINGTON *   CLOUDY    36  30  80 SE7       30.26F WCI  30
$$

ABBREVIATIONS USED IN REMARKS
   TC - TEMPERATURES IN CELSIUS
  WCI - WIND CHILL INDEX
   HX - HEAT INDEX
  VSB - VISIBILITY
$$





USA.gov is the U.S. government's official web portal to all federal, state and local government web resources and services.